Location: ???????
(55.4362°N, 38.1183°E)
Time: 18:24:56
(UTC+00:00)

Cosmos 1825 - Pass Details

Date: 17 June 2021
Orbit: 500 x 506 km, 82.5° (Epoch: 29 July)

Event Time Altitude Azimuth Distance (km) Brightness Sun altitude
Exits shadow 21:40:18 - 134° (SE) 1,994 4.8 -11.1°
Reaches altitude 10° 21:41:13 10° 125° (SE) 1,725 4.5 -11.1°
Maximum altitude 21:43:38 17° 85° (E) 1,366 4.4 -11.1°
Drops below altitude 10° 21:46:04 10° 45° (NE) 1,732 5.6 -11.1°
Sets 21:48:47 0° 24° (NNE) 2,622 7.3 -11.0°
